Tracking 35280 objects as of 7-Sep-2026
HD Live streaming from Space Station
objects crossing your sky now

SOYUZ-T 2


SOYUZ-T 2 is no longer on orbit


NORAD ID: 11825
Int'l Code: 1980-045A
Launch date: June 5, 1980
Source: Commonwealth of Independent States (former USSR) (CIS)
Launch site: TYURATAM MISSILE AND SPACE COMPLEX (TTMTR)
Decay date: 1980-06-09
Your satellite tracking list
Your tracking list is empty




NASA's NSSDC Master Catalog

Two Line Element Set (TLE):
1 11825U 80045  A 80158.21170244 -.00000486 +00000-0 +00000-0 0  9996
2 11825 051.6248 115.6005 0041467 204.3544 155.8539 15.94364643000109
Source of the keplerian elements: AFSPC